Date String (YYYY-MM-DD hh:mm:ss) UTC,Instrument flags,absolute air pressure of the measurement (hPa),sample flow rate (lpm),inlet stack bypass flow (lpm),air temperature of the measurement (°C),ambient temperature measured by the external sensor (°C),aerosol sample conditioner tube jacket temperature (°C),OPC LED temperature (°C),internal box temperature (°C),relative humidity of the measurement (%),span deviation,mass concentration of particles derived from Lorenz-Mie calculation of OPC scattering (μg/m³),mass concentration of particles derived from Lorenz-Mie calculation of OPC scattering (μg/m³),mass concentration of particles derived from Lorenz-Mie calculation of OPC scattering (μg/m³)
DateTimeUTC,F1_M11,P_M11,Q1_M11,Q2_M11,T1_M11,T2_M11,T3_M11,T4_M11,T5_M11,U1_M11,ZSPAN_M11,X0_M11,X2_M11,X1_M11
2024-05-19 03:00:00,SystemResetWarning,0826.6,5.00,000.00,024.1,022.5,000.0,032.5,025.5,026.6,0000.0,0013.38,0004.76,0003.44
2024-05-19 03:01:00,SystemResetWarning,0826.6,5.00,000.00,024.1,022.8,000.0,032.5,025.7,026.5,0000.0,0013.46,0004.82,0003.46
2024-05-19 03:02:00,SystemResetWarning,0826.7,5.01,000.00,024.2,023.1,000.0,032.4,025.9,026.4,0000.0,0013.56,0004.85,0003.50
2024-05-19 03:03:00,SystemResetWarning,0826.8,5.00,000.00,024.3,023.3,000.0,032.4,026.0,026.0,0000.0,0013.27,0004.88,0003.53
2024-05-19 03:04:00,SystemResetWarning,0826.8,4.99,000.00,024.3,023.5,000.0,032.4,026.2,025.9,0000.0,0013.73,0004.96,0003.56
2024-05-19 03:05:00,SystemResetWarning,0826.8,4.99,000.00,024.4,023.7,000.0,032.5,026.3,025.9,0000.0,0014.46,0004.94,0003.58
2024-05-19 03:06:00,SystemResetWarning,0826.8,5.00,000.00,024.5,023.8,000.0,032.5,026.4,025.8,0000.0,0013.63,0004.93,0003.59
2024-05-19 03:07:00,SystemResetWarning,0826.9,5.00,000.00,024.5,024.0,000.0,032.5,026.4,025.7,0000.0,0012.99,0004.90,0003.60
2024-05-19 03:08:00,SystemResetWarning,0826.9,5.00,000.00,024.6,024.1,000.0,032.5,026.5,025.6,0000.0,0012.52,0004.94,0003.61
2024-05-19 03:09:00,SystemResetWarning,0826.9,5.00,000.00,024.7,024.2,000.0,032.6,026.6,025.5,0000.0,0012.48,0004.95,0003.62
2024-05-19 03:10:00,SystemResetWarning,0826.9,5.00,000.00,024.6,023.2,000.0,032.7,026.0,025.6,0000.0,0012.80,0005.01,0003.65
2024-05-19 03:11:00,SystemResetWarning,0826.9,5.00,000.00,024.2,021.7,000.0,032.7,025.2,026.1,0000.0,0013.00,0005.03,0003.68
2024-05-19 03:12:00,SystemResetWarning,0826.9,5.01,000.00,024.1,021.8,000.0,032.7,025.1,026.4,0000.0,0013.70,0005.09,0003.71
2024-05-19 03:13:00,SystemResetWarning,0826.9,5.00,000.00,024.0,022.1,000.0,032.6,025.3,026.5,0000.0,0014.43,0005.17,0003.73
2024-05-19 03:14:00,SystemResetWarning,0827.0,4.99,000.00,024.1,022.5,000.0,032.5,025.5,026.5,0000.0,0014.59,0005.22,0003.75
2024-05-19 03:15:00,SystemResetWarning,0827.1,5.00,000.00,024.1,022.8,000.0,032.5,025.7,026.6,0000.0,0015.08,0005.22,0003.77
2024-05-19 03:16:00,SystemResetWarning,0827.1,5.00,000.00,024.2,023.1,000.0,032.4,025.9,026.7,0000.0,0014.36,0005.23,0003.78
2024-05-19 03:17:00,SystemResetWarning,0827.1,4.99,000.00,024.3,023.3,000.0,032.4,026.1,026.7,0000.0,0014.15,0005.22,0003.79
2024-05-19 03:18:00,SystemResetWarning,0827.1,4.99,000.00,024.3,023.5,000.0,032.4,026.2,026.8,0000.0,0014.61,0005.24,0003.82
2024-05-19 03:19:00,SystemResetWarning,0827.1,5.01,000.00,024.4,023.7,000.0,032.5,026.3,026.9,0000.0,0015.01,0005.22,0003.83
2024-05-19 03:20:00,SystemResetWarning,0827.1,5.01,000.00,024.5,023.8,000.0,032.5,026.3,027.1,0000.0,0015.36,0005.30,0003.85
2024-05-19 03:21:00,SystemResetWarning,0827.2,5.00,000.00,024.5,024.0,000.0,032.5,026.4,027.2,0000.0,0015.61,0005.30,0003.86
2024-05-19 03:22:00,SystemResetWarning,0827.1,4.99,000.00,024.6,024.1,000.0,032.6,026.5,027.2,0000.0,0015.81,0005.30,0003.87
2024-05-19 03:23:00,SystemResetWarning,0827.2,5.00,000.00,024.6,024.2,000.0,032.6,026.6,027.2,0000.0,0015.81,0005.30,0003.86
2024-05-19 03:24:00,SystemResetWarning,0827.1,5.00,000.00,024.7,023.9,000.0,032.7,026.3,027.2,0000.0,0015.39,0005.27,0003.85
2024-05-19 03:25:00,SystemResetWarning,0827.1,5.00,000.00,024.4,022.1,000.0,032.7,025.3,027.7,0000.0,0015.37,0005.21,0003.85
2024-05-19 03:26:00,SystemResetWarning,0827.1,5.01,000.00,024.1,021.7,000.0,032.7,025.1,028.2,0000.0,0015.42,0005.25,0003.86
2024-05-19 03:27:00,SystemResetWarning,0827.1,5.00,000.00,024.0,022.0,000.0,032.6,025.2,028.4,0000.0,0015.36,0005.32,0003.87
2024-05-19 03:28:00,SystemResetWarning,0827.2,4.99,000.00,024.1,022.3,000.0,032.5,025.4,028.6,0000.0,0016.45,0005.44,0003.90
2024-05-19 03:29:00,SystemResetWarning,0827.2,5.00,000.00,024.1,022.6,000.0,032.5,025.6,028.7,0000.0,0016.32,0005.50,0003.91
2024-05-19 03:30:00,SystemResetWarning,0827.2,5.01,000.00,024.2,022.9,000.0,032.4,025.8,028.8,0000.0,0016.38,0005.60,0003.93
2024-05-19 03:31:00,SystemResetWarning,0827.3,5.01,000.00,024.2,023.2,000.0,032.4,026.0,028.9,0000.0,0016.49,0005.61,0003.93
2024-05-19 03:32:00,SystemResetWarning,0827.2,5.01,000.00,024.3,023.4,000.0,032.4,026.1,028.9,0000.0,0016.25,0005.64,0003.94
2024-05-19 03:33:00,SystemResetWarning,0827.2,4.99,000.00,024.3,023.6,000.0,032.5,026.2,029.0,0000.0,0016.40,0005.68,0003.95
2024-05-19 03:34:00,SystemResetWarning,0827.2,4.99,000.00,024.4,023.7,000.0,032.5,026.3,029.0,0000.0,0017.03,0005.75,0003.96
2024-05-19 03:35:00,SystemResetWarning,0827.2,5.00,000.00,024.5,023.8,000.0,032.5,026.3,029.1,0000.0,0017.03,0005.84,0003.98
2024-05-19 03:36:00,SystemResetWarning,0827.2,5.00,000.00,024.5,024.0,000.0,032.5,026.4,029.3,0000.0,0016.74,0005.96,0003.99
2024-05-19 03:37:00,SystemResetWarning,0827.2,5.00,000.00,024.6,024.1,000.0,032.6,026.5,029.2,0000.0,0016.91,0005.95,0003.99
2024-05-19 03:38:00,SystemResetWarning,0827.1,5.01,000.00,024.6,024.2,000.0,032.6,026.6,029.0,0000.0,0017.25,0005.97,0003.99
2024-05-19 03:39:00,SystemResetWarning,0827.1,5.00,000.00,024.7,024.2,000.0,032.6,026.6,028.9,0000.0,0017.04,0005.95,0003.99
2024-05-19 03:40:00,SystemResetWarning,0827.2,5.00,000.00,024.7,024.3,000.0,032.7,026.6,028.7,0000.0,0017.36,0005.96,0003.98
2024-05-19 03:41:00,SystemResetWarning,0827.1,4.98,000.00,024.6,023.0,000.0,032.8,025.9,028.6,0000.0,0017.21,0005.91,0003.98
2024-05-19 03:42:00,SystemResetWarning,0827.1,5.01,000.00,024.3,021.6,000.0,032.8,025.2,029.2,0000.0,0016.36,0005.85,0003.98
2024-05-19 03:43:00,SystemResetWarning,0827.2,5.01,000.00,024.1,021.7,000.0,032.8,025.1,029.5,0000.0,0017.04,0005.86,0003.99
2024-05-19 03:44:00,SystemResetWarning,0827.2,4.99,000.00,024.1,022.0,000.0,032.6,025.3,029.4,0000.0,0017.10,0005.89,0003.99
2024-05-19 03:45:00,SystemResetWarning,0827.1,4.99,000.00,024.1,022.4,000.0,032.6,025.6,029.2,0000.0,0016.30,0005.91,0004.01
2024-05-19 03:46:00,SystemResetWarning,0827.1,5.01,000.00,024.1,022.7,000.0,032.5,025.7,029.0,0000.0,0016.13,0005.86,0004.03
2024-05-19 03:47:00,SystemResetWarning,0827.1,5.01,000.00,024.2,023.0,000.0,032.5,025.9,028.6,0000.0,0015.90,0005.76,0004.03
2024-05-19 03:48:00,SystemResetWarning,0827.1,5.01,000.00,024.2,023.2,000.0,032.5,026.0,028.5,0000.0,0016.67,0005.74,0004.03
2024-05-19 03:49:00,SystemResetWarning,0827.2,4.99,000.00,024.3,023.4,000.0,032.5,026.1,028.3,0000.0,0016.35,0005.77,0004.04
2024-05-19 03:50:00,SystemResetWarning,0827.1,4.99,000.00,024.4,023.6,000.0,032.5,026.2,028.0,0000.0,0016.08,0005.70,0004.04
2024-05-19 03:51:00,SystemResetWarning,0827.1,4.99,000.00,024.4,023.7,000.0,032.5,026.3,027.7,0000.0,0015.93,0005.69,0004.06
2024-05-19 03:52:00,SystemResetWarning,0827.2,5.00,000.00,024.5,023.8,000.0,032.5,026.3,027.6,0000.0,0016.25,0005.73,0004.08
2024-05-19 03:53:00,SystemResetWarning,0827.1,5.00,000.00,024.5,024.0,000.0,032.6,026.4,027.4,0000.0,0017.21,0005.79,0004.08
2024-05-19 03:54:00,SystemResetWarning,0827.2,5.00,000.00,024.6,024.1,000.0,032.6,026.5,026.9,0000.0,0016.81,0005.82,0004.09
2024-05-19 03:55:00,SystemResetWarning,0827.2,5.00,000.00,024.6,024.1,000.0,032.6,026.6,026.8,0000.0,0016.35,0005.80,0004.10
2024-05-19 03:56:00,SystemResetWarning,0827.2,5.00,000.00,024.7,024.2,000.0,032.7,026.6,026.6,0000.0,0016.36,0005.80,0004.09
2024-05-19 03:57:00,SystemResetWarning,0827.1,5.00,000.00,024.7,024.3,000.0,032.7,026.6,026.4,0000.0,0016.36,0005.83,0004.06
2024-05-19 03:58:00,SystemResetWarning,0827.1,5.00,000.00,024.8,024.4,000.0,032.7,026.7,026.3,0000.0,0016.58,0005.83,0004.04
2024-05-19 03:59:00,SystemResetWarning,0827.2,5.00,000.00,024.9,024.4,000.0,032.8,026.7,026.2,0000.0,0016.69,0005.87,0004.03
